EHI
0 16 39 32 10 1 0 0 0 0 0 0 0 0 0 0 0 0 0 0 0 0 0 0 0 0 0 0 0 0 0 0 0 0 0 0 0 0 0 0 0 0 0
0 14 38 42 24 9 2 0 0 0 0 0 0 0 0 0 0 0 0 0 0 0 0 0 0 0 0 0 0 0 0 0 0 0 0 0 0 0 0 0 0 0 0
2 9 33 54 51 31 13 3 0 0 0 0 0 0 0 0 0 0 0 0 0 0 0 0 0 0 0 0 0 0 0 0 0 0 0 0 0 0 0 0 0 0 0
6 10 33 65 75 60 35 13 2 0 0 0 0 0 0 0 0 0 0 0 0 0 0 0 0 0 0 0 0 0 0 0 0 0 0 0 0 0 0 0 0 0 0
10 18 46 77 88 82 61 31 9 2 0 0 0 0 0 0 0 0 0 0 0 0 0 0 0 0 0 0 0 0 0 0 0 0 0 0 0 0 0 0 0 0 0
10 27 61 87 93 93 80 52 24 8 2 0 0 0 0 0 0 0 0 0 0 0 0 0 0 0 0 0 0 0 0 0 0 0 0 0 0 2 5 5 3 1 1
21 42 74 93 96 96 91 74 48 26 9 2 0 0 0 0 0 0 0 0 0 0 0 0 0 0 0 0 0 0 0 0 0 0 0 0 0 7 18 20 15 10 6
35 58 83 95 98 98 97 90 76 54 28 9 2 0 0 0 0 0 0 0 0 0 0 0 0 0 0 0 0 0 0 0 0 0 0 0 0 10 29 38 34 28 21
30 53 80 93 97 99 99 98 92 78 51 22 5 1 0 0 0 1 2 1 0 0 0 0 0 0 0 0 0 0 0 0 0 0 0 0 0 8 29 48 54 49 45
20 37 66 84 92 95 95 94 91 79 55 27 8 1 0 0 0 1 2 2 1 0 0 0 0 0 0 0 0 0 0 0 0 0 0 0 0 6 29 58 72 70 68
27 35 57 74 80 83 79 73 66 52 33 16 5 1 0 0 0 0 1 1 1 0 0 1 3 2 1 0 0 0 0 0 0 0 0 0 0 7 33 69 87 87 85
42 41 51 64 67 64 53 38 27 18 9 3 1 0 0 0 0 0 0 0 1 0 1 3 5 4 2 0 0 0 0 0 0 0 0 0 2 10 38 73 93 96 94
52 42 40 46 47 38 24 11 6 3 1 0 0 0 0 0 0 0 0 0 1 1 1 2 3 3 1 0 0 0 0 0 0 0 0 1 4 16 42 74 92 97 97
57 41 28 28 24 14 6 2 2 1 0 0 0 0 2 5 5 3 2 0 2 7 11 11 9 6 2 0 0 0 0 0 0 0 0 2 10 26 50 75 91 96 98
59 46 32 23 13 8 8 9 9 9 7 5 3 2 8 19 23 19 11 5 9 22 35 36 28 16 5 0 0 0 0 0 0 0 0 4 17 39 61 79 91 96 97
68 64 53 37 24 23 30 34 34 33 28 23 18 15 23 40 53 52 37 24 27 43 59 60 46 28 12 3 1 0 1 1 1 1 1 4 19 44 68 83 91 94 95
82 82 77 65 53 52 58 62 61 54 45 36 29 27 35 53 73 80 71 56 52 59 66 63 51 36 22 11 5 2 2 3 3 2 2 4 12 33 62 82 90 92 92
90 90 90 86 81 77 73 67 59 48 34 24 19 19 26 40 60 77 83 76 68 65 62 56 48 39 29 19 10 3 1 1 1 1 2 3 7 18 41 66 81 87 89
92 91 88 85 80 73 61 45 33 22 12 6 4 4 8 14 27 49 67 73 73 67 58 50 43 36 28 19 9 3 0 0 0 0 0 2 4 9 20 39 59 71 75
83 78 70 61 51 40 29 18 9 4 1 0 0 0 1 2 7 23 42 59 69 68 59 50 40 30 21 13 5 1 0 0 0 0 0 0 1 3 6 16 31 43 49
58 52 41 31 20 12 7 3 1 0 0 0 0 0 1 1 3 10 23 42 59 65 60 52 43 30 18 9 3 1 0 0 0 0 0 0 0 0 1 5 10 18 23
34 30 24 17 12 8 5 3 1 0 0 0 0 0 0 0 3 7 15 29 46 56 54 48 44 34 20 10 4 2 0 0 0 0 0 0 0 0 0 1 2 6 8
20 20 21 20 17 14 11 7 2 0 0 0 0 0 0 1 3 6 12 22 35 42 39 35 34 29 19 10 5 3 1 0 0 0 0 0 0 0 0 0 0 1 2
12 14 19 22 19 18 14 7 1 0 0 0 0 0 0 0 1 3 8 15 22 24 22 19 18 15 11 7 4 3 1 0 0 0 0 0 0 0 0 0 0 0 0
6 8 14 17 16 15 11 4 0 0 0 0 0 0 0 0 0 0 2 6 9 9 8 7 6 4 4 3 2 1 1 0 0 0 0 0 0 0 0 0 0 0 0
3 6 11 14 13 11 7 2 0 0 0 0 0 0 0 0 0 0 0 1 2 3 3 2 1 1 1 1 1 0 0 0 0 0 0 0 0 0 0 0 0 0 0
Wind_Speed
9 11 19 20 18 17 15 14 13 13 13 14 14 15 15 15 14 14 13 12 12 12 12 12 12 12 12 12 12 12 11 11 11 12 12 12 12 11 10 12 11 8 11
14 13 20 20 19 18 16 15 13 13 12 13 13 13 13 13 13 12 12 11 11 10 10 10 10 10 10 10 10 10 9 8 8 9 9 9 9 9 8 10 11 7 11
17 13 17 20 20 19 17 15 14 13 12 12 12 11 11 11 11 11 11 10 10 9 9 8 8 9 8 8 7 7 6 6 5 6 7 3 4 7 8 11 12 12 11
17 12 14 20 19 19 18 16 15 14 13 12 11 11 10 10 10 9 9 9 8 8 8 8 7 7 7 7 6 5 4 3 2 2 2 2 3 6 8 11 12 11 10
14 11 15 21 20 19 18 16 15 15 14 13 12 11 10 9 9 8 8 8 7 7 7 7 7 7 6 6 6 5 4 4 4 3 2 2 3 7 9 10 11 12 11
13 11 14 20 19 19 18 17 16 15 14 13 12 11 10 10 9 9 8 8 8 7 7 7 6 6 7 7 7 7 6 6 5 3 3 4 5 11 13 12 12 13 12
13 10 13 19 19 19 18 17 16 15 14 13 13 12 11 10 10 10 10 9 8 8 8 8 7 7 8 8 8 8 8 8 5 4 4 4 6 12 16 16 14 14 13
17 12 12 19 19 18 18 18 17 16 15 14 13 12 11 11 11 11 11 11 10 10 9 9 10 10 9 9 9 9 9 10 7 5 4 4 7 13 18 17 16 16 16
15 13 10 12 14 18 18 18 18 17 16 15 14 13 13 12 12 12 12 12 12 12 11 12 12 13 12 11 11 11 11 12 7 5 7 4 6 12 18 19 18 18 17
11 11 10 9 9 9 11 17 18 17 16 16 15 15 14 14 13 14 12 12 14 14 15 15 15 15 13 13 13 13 13 12 7 6 5 6 10 12 18 20 20 19 18
10 8 9 8 7 7 7 12 14 15 15 15 13 16 14 7 7 8 12 15 17 17 17 17 17 16 14 14 15 15 13 6 6 6 6 11 13 14 17 21 21 20 19
13 12 10 10 9 8 8 7 5 6 6 7 6 7 6 5 6 9 11 18 19 19 20 19 18 16 13 7 10 13 6 8 7 7 8 15 16 16 17 21 22 21 20
15 14 12 12 11 10 7 5 4 4 4 6 7 7 6 5 5 7 5 9 12 16 11 12 12 9 8 7 6 6 7 7 6 6 9 16 18 18 19 21 22 21 20
14 14 13 12 11 11 8 6 7 6 5 6 8 10 7 6 6 6 6 6 6 6 8 8 6 8 9 10 9 9 9 7 7 6 8 17 18 19 19 20 21 21 20
13 13 14 13 12 10 8 6 8 8 8 8 8 9 10 8 8 8 7 7 7 7 8 8 8 9 9 10 10 11 11 11 10 9 7 15 18 17 18 19 20 21 20
9 10 12 13 12 9 8 7 6 7 6 7 7 9 11 10 9 9 9 7 7 8 8 9 10 10 9 9 10 11 11 10 10 10 9 10 16 17 18 20 21 21 21
5 7 9 11 10 9 8 7 5 5 5 5 6 8 10 10 10 9 8 7 7 8 9 7 9 8 8 8 10 11 9 8 8 9 8 7 8 15 19 20 20 21 21
5 4 4 5 4 4 4 3 3 3 3 3 3 4 6 9 10 8 7 7 7 6 6 6 6 5 6 6 6 6 6 5 7 7 7 7 7 8 13 20 21 21 22
6 5 5 4 2 1 2 2 3 3 4 4 4 4 4 5 7 7 7 7 7 5 6 6 5 4 5 5 5 4 5 5 6 7 7 8 8 8 8 12 20 22 23
6 6 5 4 3 2 1 2 2 3 4 4 4 5 7 6 7 6 6 8 7 6 6 5 5 5 4 4 5 5 5 6 6 7 8 8 8 9 9 10 10 13 22
6 5 4 4 2 1 0 1 2 3 3 4 5 6 7 7 7 6 6 7 7 7 8 8 6 6 6 4 3 4 5 7 9 9 7 7 8 10 9 10 8 7 8
5 4 4 4 3 2 2 2 2 3 4 4 5 6 7 7 7 7 7 6 7 7 8 8 7 5 5 5 5 3 4 4 6 9 7 7 7 6 7 9 8 8 7
5 5 5 6 4 3 2 1 1 2 3 4 5 5 6 7 7 7 8 7 7 6 7 8 8 8 7 5 6 6 4 6 4 3 5 4 3 1 3 4 5 4 5
7 6 6 6 4 2 2 1 1 2 4 6 6 6 7 8 8 7 7 7 7 6 7 8 8 6 7 6 5 6 6 4 4 3 3 2 2 2 2 3 2 1 0
7 7 6 5 3 2 2 1 1 3 4 5 6 8 8 8 7 8 7 7 7 6 7 8 7 7 6 6 5 4 5 5 6 5 4 3 2 2 2 3 1 1 2
5 5 5 5 3 2 2 2 1 3 5 7 8 8 8 7 7 8 8 7 7 7 8 8 7 7 6 6 5 5 4 4 4 5 5 3 2 2 1 1 1 2 2
Wind_Direction
152 156 150 149 145 142 138 133 127 121 117 114 111 110 108 107 108 110 112 114 116 118 118 116 113 111 110 111 111 114 118 123 125 125 123 121 120 118 118 122 115 109 110
151 156 151 150 147 144 140 136 132 128 124 121 119 118 117 117 118 119 121 122 123 123 123 121 118 116 114 113 114 117 120 122 123 123 124 124 124 117 117 136 129 124 117
144 151 152 153 150 146 143 141 139 137 135 133 132 130 130 130 130 131 132 132 134 134 132 130 127 125 123 121 120 121 120 118 121 128 127 122 132 131 124 130 133 131 127
144 148 152 155 153 149 147 146 146 147 147 147 147 147 146 146 146 147 146 146 148 149 149 148 147 145 144 144 145 145 143 137 140 160 156 178 186 166 154 145 143 142 141
142 146 155 157 156 154 152 152 154 156 157 159 160 162 163 163 164 166 165 166 167 168 170 171 170 168 169 173 177 183 192 198 208 224 248 244 225 196 186 173 162 157 157
144 148 155 157 158 158 157 158 160 162 164 167 170 174 177 180 182 183 183 185 187 189 191 193 192 192 195 200 204 210 219 227 231 217 229 245 232 215 201 195 183 173 171
148 153 156 157 160 161 162 163 165 168 172 175 179 183 187 191 195 197 196 199 202 204 206 207 210 211 214 220 225 228 234 242 240 228 222 228 233 215 202 201 196 187 184
152 156 157 160 162 163 165 167 170 174 179 183 187 191 196 201 206 206 204 206 211 215 216 218 221 221 222 225 230 235 243 250 256 255 244 229 232 214 204 203 202 197 194
154 157 161 164 166 168 170 173 176 180 185 189 193 197 202 207 210 211 210 212 217 221 225 228 229 227 225 226 228 232 238 246 251 257 265 253 245 222 211 206 206 204 202
155 163 165 166 168 170 174 180 183 187 190 195 199 204 207 211 213 215 214 217 222 226 229 231 232 231 229 228 231 235 241 247 246 248 255 257 255 236 220 212 210 209 208
159 168 169 170 170 170 175 188 190 195 199 201 206 211 213 218 219 221 222 222 227 230 231 233 233 233 233 234 236 238 244 240 237 244 246 251 250 243 228 218 215 213 211
170 176 177 177 175 172 185 187 193 202 205 207 209 216 215 214 221 226 231 232 232 233 234 235 235 236 236 237 240 241 238 239 240 243 244 245 246 245 233 224 220 218 216
176 177 180 181 180 181 191 182 191 206 209 215 216 218 220 222 230 233 233 239 238 238 236 238 236 232 231 231 231 229 235 239 239 240 244 245 245 245 238 228 224 222 220
175 182 179 181 183 189 192 190 191 202 210 215 221 220 218 223 228 231 233 233 229 228 227 229 229 230 232 235 236 237 239 239 237 234 240 245 244 244 239 229 222 222 222
179 183 180 181 186 190 193 196 196 204 212 216 219 221 219 220 226 230 232 230 228 222 220 221 225 231 234 238 240 241 242 242 240 236 239 243 238 234 230 225 222 223 225
172 174 175 182 188 189 191 196 200 203 211 219 223 226 223 223 225 228 232 229 226 219 217 216 219 224 230 233 238 239 241 241 238 236 237 243 238 230 225 223 223 224 227
141 150 163 180 187 193 199 200 203 207 212 219 223 228 229 229 231 231 234 235 229 219 215 216 221 224 229 230 236 237 238 237 236 236 238 235 236 232 227 226 226 228 229
91 104 134 162 186 209 222 236 246 252 259 254 246 244 243 238 237 237 239 243 239 223 214 211 211 213 223 224 229 238 242 244 249 250 247 241 234 234 231 230 231 232 233
94 95 92 79 86 26 310 298 295 290 284 280 281 276 274 271 254 238 237 238 234 228 224 219 211 205 221 227 232 242 250 252 255 261 259 253 242 236 233 231 231 232 235
98 99 100 96 94 73 13 324 302 294 283 278 274 269 265 260 257 244 235 232 224 222 226 221 216 209 213 217 237 246 244 247 249 249 253 257 253 248 242 237 232 236 236
100 102 106 112 120 119 97 296 294 290 289 289 280 274 272 268 264 253 247 238 226 224 226 220 215 219 226 205 214 259 259 245 246 249 248 253 257 258 251 240 232 231 236
123 125 136 150 169 177 196 217 238 263 278 276 282 289 283 280 275 271 254 247 237 231 231 224 213 213 223 196 192 220 275 287 252 243 238 239 251 263 264 255 237 229 233
158 165 170 184 189 193 196 208 307 313 308 305 302 295 289 289 286 278 268 257 248 234 233 231 221 216 228 222 201 195 208 236 270 271 236 225 240 287 298 291 261 240 232
189 182 177 179 173 172 148 111 305 293 291 287 288 287 290 288 286 283 276 266 253 239 236 237 231 222 222 232 222 215 216 206 219 267 281 247 247 257 307 298 288 294 176
188 180 172 154 144 138 113 93 332 302 292 299 302 300 298 294 288 284 278 269 257 244 237 235 230 221 217 224 221 215 224 227 220 224 252 264 283 277 277 277 285 95 92
186 168 150 139 136 123 91 58 16 324 317 319 318 313 307 302 298 291 285 272 260 249 238 232 225 218 217 219 219 211 205 206 208 213 223 229 248 264 289 356 96 116 115